Monett, MO

1:15 PM CST on February 21, 2018 (GMT -0600)
Monett

Weather History for KHFJ - January, 2014

Change the Weather History Date:

Friday, January 17, 2014

  Actual Average (KJLN) Record (KJLN)
Temperature  
Mean Temperature 27 °F -  
Max Temperature 33 °F 42 °F 68 °F (1952)
Min Temperature 21 °F 24 °F -7 °F (1978)
Degree Days  
Heating Degree Days 38    
Moisture  
Dew Point 5 °F    
Average Humidity 40    
Maximum Humidity 59    
Minimum Humidity 21    
Precipitation  
Precipitation 0.00 in - - ()
Sea Level Pressure  
Sea Level Pressure 30.11 in    
Wind  
Wind Speed 16 mph (West)    
Max Wind Speed 26 mph    
Max Gust Speed 33 mph    
Visibility 10 miles    
Events      
Averages and records for this station are not official NWS values.
T = Trace of Precipitation, MM = Missing Value Source: NWS Daily Summary

Daily Weather History Graph

Daily Weather History Graph

Search for Another Location

Airport or City:

Trip Planner

Search our weather history database for the weather conditions in past years. The results will help you decide how hot, cold, wet, or windy it might be!

Date:

Astronomy

Jan. 17, 2014 Rise Set
Actual Time 7:27 AM CST 5:25 PM CST
Civil Twilight 6:59 AM CST 5:53 PM CST
Nautical Twilight 6:27 AM CST 6:25 PM CST
Astronomical Twilight 5:56 AM CST 6:56 PM CST
Moon 7:08 PM CST (1/17) 7:58 AM CST (1/17)
Length of Visible Light 10h 54m
Length of Day
9h 57m
Full, 98% of the Moon is Illuminated
Jan 17
Full
Jan 23
Last Quarter
Jan 30
New
Feb 6
First Quarter
Feb 14
Full

Hourly Weather History & Observations

Time (CST) Temp. Windchill Dew Point Humidity Pressure Visibility Wind Dir Wind Speed Gust Speed Precip Events Conditions
12:15 AM 32.0 °F 20.1 °F 12.2 °F 44% 30.02 in 10.0 mi WNW 19.6 mph 31.1 mph N/A   Scattered Clouds
12:35 AM 30.2 °F 17.1 °F 8.6 °F 40% 30.03 in 10.0 mi WNW 21.9 mph 27.6 mph N/A   Clear
12:55 AM 30.2 °F 17.1 °F 8.6 °F 40% 30.03 in 10.0 mi NW 21.9 mph 31.1 mph N/A   Clear
1:15 AM 28.4 °F 15.8 °F 8.6 °F 43% 30.04 in 10.0 mi NW 18.4 mph 29.9 mph N/A   Clear
1:35 AM 26.6 °F 12.4 °F 8.6 °F 47% 30.05 in 10.0 mi WNW 21.9 mph 25.3 mph N/A   Clear
1:55 AM 26.6 °F 13.1 °F 8.6 °F 47% 30.06 in 10.0 mi WNW 19.6 mph 24.2 mph N/A   Clear
2:15 AM 26.6 °F 13.1 °F 8.6 °F 47% 30.06 in 10.0 mi NW 19.6 mph 26.5 mph N/A   Clear
2:35 AM 26.6 °F 11.1 °F 8.6 °F 47% 30.07 in 10.0 mi WNW 26.5 mph 31.1 mph N/A   Clear
2:55 AM 26.6 °F 12.7 °F 8.6 °F 47% 30.07 in 10.0 mi WNW 20.7 mph 28.8 mph N/A   Clear
3:15 AM 26.6 °F 13.4 °F 8.6 °F 47% 30.07 in 10.0 mi NW 18.4 mph 28.8 mph N/A   Clear
3:35 AM 24.8 °F 13.4 °F 10.4 °F 54% 30.07 in 10.0 mi WNW 12.7 mph 16.1 mph N/A   Clear
3:55 AM 24.8 °F 11.9 °F 10.4 °F 54% 30.07 in 10.0 mi WNW 16.1 mph 20.7 mph N/A   Clear
4:15 AM 24.8 °F 11.9 °F 10.4 °F 54% 30.07 in 10.0 mi WNW 16.1 mph 20.7 mph N/A   Clear
4:35 AM 23.0 °F 11.1 °F 10.4 °F 59% 30.08 in 10.0 mi WNW 12.7 mph 19.6 mph N/A   Clear
4:55 AM 23.0 °F 9.6 °F 10.4 °F 59% 30.08 in 10.0 mi WNW 16.1 mph 20.7 mph N/A   Clear
5:15 AM 23.0 °F 11.1 °F 8.6 °F 54% 30.08 in 10.0 mi WNW 12.7 mph - N/A   Clear
5:35 AM 23.0 °F 9.6 °F 8.6 °F 54% 30.08 in 10.0 mi WNW 16.1 mph 21.9 mph N/A   Clear
5:55 AM 23.0 °F 8.3 °F 5.0 °F 46% 30.09 in 10.0 mi NW 19.6 mph 33.4 mph N/A   Clear
6:15 AM 23.0 °F 11.1 °F 5.0 °F 46% 30.10 in 10.0 mi NW 12.7 mph - N/A   Clear
6:35 AM 21.2 °F 9.5 °F 5.0 °F 50% 30.10 in 10.0 mi WNW 11.5 mph - N/A   Clear
6:55 AM 21.2 °F 9.5 °F 5.0 °F 50% 30.11 in 10.0 mi West 11.5 mph - N/A   Clear
7:15 AM 21.2 °F 10.1 °F 5.0 °F 50% 30.11 in 10.0 mi West 10.4 mph - N/A   Clear
7:35 AM 21.2 °F 7.8 °F 5.0 °F 50% 30.12 in 10.0 mi WNW 15.0 mph 21.9 mph N/A   Clear
7:55 AM 21.2 °F 8.9 °F 5.0 °F 50% 30.12 in 10.0 mi WNW 12.7 mph 17.3 mph N/A   Clear
8:15 AM 21.2 °F 7.8 °F 5.0 °F 50% 30.12 in 10.0 mi WNW 15.0 mph 18.4 mph N/A   Clear
8:35 AM 23.0 °F 10.6 °F 3.2 °F 43% 30.13 in 10.0 mi WNW 13.8 mph 23.0 mph N/A   Clear
8:55 AM 23.0 °F 8.3 °F 3.2 °F 43% 30.14 in 10.0 mi WNW 19.6 mph 27.6 mph N/A   Clear
9:15 AM 24.8 °F 12.9 °F 3.2 °F 40% 30.15 in 10.0 mi NW 13.8 mph 24.2 mph N/A   Clear
9:35 AM 24.8 °F 10.7 °F 3.2 °F 40% 30.15 in 10.0 mi WNW 19.6 mph 29.9 mph N/A   Clear
9:55 AM 24.8 °F 11.1 °F 3.2 °F 40% 30.16 in 10.0 mi WNW 18.4 mph 26.5 mph N/A   Clear
10:15 AM 26.6 °F 14.3 °F 3.2 °F 37% 30.16 in 10.0 mi WNW 16.1 mph 27.6 mph N/A   Clear
10:35 AM 26.6 °F 13.1 °F 5.0 °F 40% 30.17 in 10.0 mi NW 19.6 mph 26.5 mph N/A   Clear
10:55 AM 28.4 °F 15.4 °F 5.0 °F 37% 30.17 in 10.0 mi WNW 19.6 mph 25.3 mph N/A   Clear
11:15 AM 28.4 °F 15.4 °F 5.0 °F 37% 30.17 in 10.0 mi West 19.6 mph 28.8 mph N/A   Clear
11:35 AM 28.4 °F 16.6 °F 5.0 °F 37% 30.16 in 10.0 mi NW 16.1 mph 27.6 mph N/A   Clear
11:55 AM 30.2 °F 17.8 °F 3.2 °F 32% 30.15 in 10.0 mi WNW 19.6 mph 24.2 mph N/A   Clear
12:15 PM 30.2 °F 18.5 °F 3.2 °F 32% 30.14 in 10.0 mi WNW 17.3 mph 23.0 mph N/A   Clear
12:35 PM 30.2 °F 17.8 °F 1.4 °F 29% 30.14 in 10.0 mi WNW 19.6 mph 26.5 mph N/A   Clear
12:55 PM 32.0 °F 20.8 °F -2.2 °F 23% 30.13 in 10.0 mi WNW 17.3 mph 26.5 mph N/A   Clear
1:15 PM 32.0 °F 20.1 °F -4.0 °F 21% 30.13 in 10.0 mi WNW 19.6 mph 28.8 mph N/A   Clear
1:35 PM 32.0 °F 19.5 °F -4.0 °F 21% 30.13 in 10.0 mi WNW 21.9 mph 28.8 mph N/A   Clear
1:55 PM 32.0 °F 20.1 °F -2.2 °F 23% 30.13 in 10.0 mi WNW 19.6 mph 25.3 mph N/A   Clear
2:15 PM 32.0 °F 20.8 °F -2.2 °F 23% 30.13 in 10.0 mi WNW 17.3 mph 26.5 mph N/A   Clear
2:35 PM 32.0 °F 20.1 °F -2.2 °F 23% 30.13 in 10.0 mi WNW 19.6 mph 27.6 mph N/A   Clear
2:55 PM 33.8 °F 23.2 °F 1.4 °F 25% 30.14 in 10.0 mi West 17.3 mph 23.0 mph N/A   Clear
3:15 PM 33.8 °F 22.5 °F 3.2 °F 28% 30.14 in 10.0 mi WNW 19.6 mph 26.5 mph N/A   Clear
3:35 PM 33.8 °F 23.9 °F 1.4 °F 25% 30.15 in 10.0 mi WNW 15.0 mph 18.4 mph N/A   Clear
3:55 PM 32.0 °F 22.1 °F 1.4 °F 27% 30.15 in 10.0 mi WNW 13.8 mph 25.3 mph N/A   Clear
4:15 PM 33.8 °F 24.8 °F 1.4 °F 25% 30.15 in 10.0 mi WNW 12.7 mph 18.4 mph N/A   Clear
4:35 PM 32.0 °F 20.8 °F 1.4 °F 27% 30.15 in 10.0 mi WNW 17.3 mph 20.7 mph N/A   Clear
4:55 PM 32.0 °F 23.6 °F 1.4 °F 27% 30.15 in 10.0 mi WNW 10.4 mph 18.4 mph N/A   Clear
5:15 PM 32.0 °F 24.8 °F 1.4 °F 27% 30.15 in 10.0 mi WNW 8.1 mph - N/A   Clear
5:35 PM 30.2 °F 23.4 °F 3.2 °F 32% 30.14 in 10.0 mi WNW 6.9 mph - N/A   Clear
5:55 PM 28.4 °F 23.3 °F 3.2 °F 34% 30.14 in 10.0 mi West 4.6 mph - N/A   Clear
6:15 PM 28.4 °F 22.2 °F 3.2 °F 34% 30.14 in 10.0 mi West 5.8 mph - N/A   Clear
6:35 PM 28.4 °F 22.2 °F 3.2 °F 34% 30.14 in 10.0 mi West 5.8 mph - N/A   Clear
6:55 PM 28.4 °F 22.2 °F 3.2 °F 34% 30.14 in 10.0 mi West 5.8 mph - N/A   Clear
7:15 PM 28.4 °F 24.6 °F 3.2 °F 34% 30.14 in 10.0 mi WSW 3.5 mph - N/A   Clear
7:35 PM 28.4 °F 24.6 °F 3.2 °F 34% 30.13 in 10.0 mi SW 3.5 mph - N/A   Clear
7:55 PM 26.6 °F 21.2 °F 5.0 °F 40% 30.12 in 10.0 mi SW 4.6 mph - N/A   Clear
8:15 PM 26.6 °F 22.6 °F 5.0 °F 40% 30.12 in 10.0 mi SSW 3.5 mph - N/A   Clear
8:35 PM 26.6 °F - 5.0 °F 40% 30.11 in 10.0 mi Calm Calm - N/A   Clear
8:55 PM 26.6 °F 21.2 °F 5.0 °F 40% 30.12 in 10.0 mi South 4.6 mph - N/A   Clear
9:15 PM 26.6 °F 20.0 °F 6.8 °F 43% 30.12 in 10.0 mi SSW 5.8 mph - N/A   Clear
9:35 PM 26.6 °F 21.2 °F 6.8 °F 43% 30.12 in 10.0 mi South 4.6 mph - N/A   Clear
9:55 PM 26.6 °F 21.2 °F 6.8 °F 43% 30.12 in 10.0 mi SSW 4.6 mph - N/A   Clear
10:15 PM 24.8 °F 19.1 °F 8.6 °F 50% 30.11 in 10.0 mi SSE 4.6 mph - N/A   Clear
10:35 PM 24.8 °F 17.9 °F 8.6 °F 50% 30.11 in 10.0 mi South 5.8 mph - N/A   Clear
10:55 PM 23.0 °F 15.8 °F 10.4 °F 59% 30.10 in 10.0 mi South 5.8 mph - N/A   Clear
11:15 PM 24.8 °F 17.9 °F 10.4 °F 54% 30.09 in 10.0 mi South 5.8 mph - N/A   Clear
11:35 PM 26.6 °F 20.0 °F 10.4 °F 51% 30.08 in 10.0 mi South 5.8 mph - N/A   Clear
11:55 PM 26.6 °F 21.2 °F 10.4 °F 51% 30.06 in 10.0 mi SSE 4.6 mph - N/A   Clear